This is the latest recevied weather packets stored in our database for station/object W1RCY. If no packets are shown the sender has not sent any weather packets the latest 10 day(s).
| Time | Temp. | Humidity | Pressure | Rain* | Wind** | Luminosity | Snow |
|---|---|---|---|---|---|---|---|
| 1777441759 | 6.11° C | 77% | 1017.8 hPa | 0 mm | - | 0 W/m² | - |
| 1777441454 | 6.11° C | 77% | 1018.2 hPa | 0 mm | - | 0 W/m² | - |
| 1777441150 | 6.11° C | 77% | 1018.2 hPa | 0 mm | - | 0 W/m² | - |
| 1777440846 | 6.11° C | 78% | 1018.2 hPa | 0 mm | - | 0 W/m² | - |
| 1777440542 | 6.11° C | 76% | 1017.7 hPa | 0 mm | - | 0 W/m² | - |
| 1777440237 | 6.11° C | 77% | 1017.8 hPa | 0 mm | - | 0 W/m² | - |
| 1777439934 | 6.67° C | 77% | 1017.9 hPa | 0 mm | - | 0 W/m² | - |
| 1777439630 | 6.67° C | 77% | 1017.7 hPa | 0 mm | - | 0 W/m² | - |
| 1777439326 | 6.67° C | 78% | 1018.2 hPa | 0 mm | - | 0 W/m² | - |
| 1777439021 | 6.67° C | 77% | 1018 hPa | 0 mm | - | 0 W/m² | - |
| 1777438720 | 6.67° C | 76% | 1017.7 hPa | 0 mm | - | 0 W/m² | - |
| 1777438415 | 6.67° C | 76% | 1017.6 hPa | 0 mm | - | 0 W/m² | - |
| 1777438111 | 6.67° C | 74% | 1017.6 hPa | 0 mm | - | 0 W/m² | - |
| 1777437807 | 6.67° C | 73% | 1017.3 hPa | 0 mm | - | 0 W/m² | - |
| 1777437503 | 6.67° C | 72% | 1017.5 hPa | 0 mm | - | 0 W/m² | - |
| 1777437201 | 6.67° C | 70% | 1017.5 hPa | 0 mm | - | 0 W/m² | - |
| 1777436896 | 6.67° C | 69% | 1017.7 hPa | 0 mm | - | 0 W/m² | - |
| 1777436589 | 6.11° C | 68% | 1017.9 hPa | 0 mm | - | 0 W/m² | - |
| 1777436285 | 6.11° C | 69% | 1018.1 hPa | 0 mm | - | 0 W/m² | - |
| 1777435980 | 5.56° C | 70% | 1018.1 hPa | 0 mm | - | 0 W/m² | - |
| 1777435677 | 5.56° C | 70% | 1018.2 hPa | 0 mm | - | 0 W/m² | - |
| 1777435373 | 5.56° C | 70% | 1018.4 hPa | 0 mm | - | 0 W/m² | - |
| 1777435073 | 5.56° C | 72% | 1018.4 hPa | 0 mm | - | 0 W/m² | - |
| 1777434769 | 5° C | 75% | 1018.5 hPa | 0 mm | - | 0 W/m² | - |
| 1777434468 | 5° C | 75% | 1018.5 hPa | 0 mm | - | 0 W/m² | - |
* Rain latest hour (hover to see other rain measurements)
** Current wind speed in m/s (hover to see current wind gust speed)